Surface/Precipitation History
11/25/2014 11:32  to  11/26/2014 11:32
Change End Date:
Date/Time
(MST)
Sf
Temp Chem Water Layer Surface Precipitation
Sf Sub Frz Factor Pct Depth IcePct Cond Salin Type Intens Accum Rate
11/26/2014 11:23 Wet 41.7F 42F 32F 95 0% 0.00 in 0% 15 mhos 0 None None - -
11/26/2014 11:13 Wet 41.4F 41F 32F 70 0% 0.00 in 0% 10 mhos 0 None None - -
11/26/2014 11:11 Wet 41.2F 42F 32F 65 0% 0.00 in 0% 9 mhos 0 None None - -
11/26/2014 11:03 Wet 40.5F 42F 32F 80 0% 0.00 in 0% 19 mhos 0 Yes - - -
11/26/2014 10:53 Wet 40.5F 42F 32F 85 0% 0.00 in 0% 9 mhos 0 Yes - - -
11/26/2014 10:53 Wet 40.5F 42F 32F 85 0% 0.00 in 0% 9 mhos 0 Yes - - -
11/26/2014 10:43 Wet 40.3F 42F 32F 95 0% 0.00 in 0% 8 mhos 0 None None - -
11/26/2014 10:41 Wet 40.1F 42F 32F 85 0% 0.00 in 0% 11 mhos 0 None None - -
11/26/2014 10:33 Wet 40.3F 42F 32F 95 0% 0.00 in 0% 17 mhos 0 None None - -
11/26/2014 10:25 Wet 40.1F 42F 32F 95 0% 0.00 in 0% 14 mhos 0 None None - -
11/26/2014 10:23 Wet 39.7F 42F 32F 95 0% 0.00 in 0% 8 mhos 0 None None - -
11/26/2014 10:13 Wet 39.2F 42F 32F 70 0% 0.00 in 0% 4 mhos 0 None None - -
11/26/2014 10:11 Wet 39.2F 42F 32F 75 0% 0.00 in 0% 3 mhos 0 Yes - - -
11/26/2014 10:03 Wet 38.8F 42F 32F 95 0% 0.00 in 0% 10 mhos 0 None None - -
11/26/2014 09:53 Wet 38.5F 42F 32F 95 0% 0.00 in 0% 4 mhos 0 None None - -
Date/Time
(MST)
Sf
Temp Chem Water Layer Surface Precipitation
Sf Sub Frz Factor Pct Depth IcePct Cond Salin Type Intens Accum Rate
11/26/2014 09:52 Wet 38.5F 42F 32F 75 0% 0.00 in 0% 4 mhos 0 None None - -
11/26/2014 09:43 Wet 37.9F 41F 32F 95 0% 0.00 in 0% 19 mhos 0 Yes - - -
11/26/2014 09:41 Wet 37.6F 42F 32F 95 0% 0.00 in 0% 4 mhos 0 Yes - - -
11/26/2014 09:33 Wet 37.6F 42F 32F 90 0% 0.00 in 0% 6 mhos 0 Yes - - -
11/26/2014 09:23 Wet 37.4F 42F 32F 95 0% 0.00 in 0% 9 mhos 0 Yes - - -
11/26/2014 09:21 Wet 37.4F 42F 32F 95 0% 0.00 in 0% 8 mhos 0 Yes - - -
11/26/2014 09:13 Wet 37.0F 42F 32F 95 0% 0.00 in 0% 4 mhos 0 Yes - - -
11/26/2014 09:11 Wet 37.0F 42F 32F 95 0% 0.00 in 0% 11 mhos 0 None None - -
11/26/2014 09:03 Wet 36.7F 42F 32F 95 0% 0.00 in 0% 3 mhos 0 Yes - - -
11/26/2014 08:54 Wet 36.0F 41F 32F 95 0% 0.00 in 0% 5 mhos 0 None None - -
11/26/2014 08:53 Wet 36.0F 42F 32F 95 0% 0.00 in 0% 3 mhos 0 Yes - - -
11/26/2014 08:43 Wet 35.8F 41F 32F 95 0% 0.00 in 0% 5 mhos 0 Yes - - -
11/26/2014 08:41 Wet 35.8F 42F 32F 95 0% 0.00 in 0% 4 mhos 0 Yes - - -
11/26/2014 08:33 Wet 35.6F 42F 32F 95 0% 0.00 in 0% 5 mhos 0 Yes - - -
11/26/2014 08:24 Wet 35.6F 42F 32F 95 0% 0.00 in 0% 3 mhos 0 Yes - - -
Date/Time
(MST)
Sf
Temp Chem Water Layer Surface Precipitation
Sf Sub Frz Factor Pct Depth IcePct Cond Salin Type Intens Accum Rate
11/26/2014 08:23 Wet 35.6F 42F 32F 95 0% 0.00 in 0% 16 mhos 0 Yes - - -
11/26/2014 08:12 Wet 35.4F 42F 32F 95 0% 0.00 in 0% 4 mhos 0 Yes - - -
11/26/2014 08:12 Wet 35.4F 42F 32F 95 0% 0.00 in 0% 3 mhos 0 Yes - - -
11/26/2014 08:02 Wet 35.2F 42F 32F 95 0% 0.00 in 0% 11 mhos 0 Yes - - -
11/26/2014 07:52 Wet 35.2F 42F 32F 95 0% 0.00 in 0% 4 mhos 0 Yes - - -
11/26/2014 07:52 Wet 35.2F 42F 32F 95 0% 0.00 in 0% 5 mhos 0 Yes - - -
11/26/2014 07:42 Wet 35.1F 42F 32F 95 0% 0.00 in 0% 6 mhos 0 Yes - - -
11/26/2014 07:41 Wet 35.1F 42F 32F 95 0% 0.00 in 0% 6 mhos 0 Yes - - -
11/26/2014 07:32 Wet 35.2F 42F 32F 95 0% 0.00 in 0% 4 mhos 0 Yes - - -
11/26/2014 07:22 Wet 34.9F 42F 32F 95 0% 0.00 in 0% 5 mhos 0 Yes - - -
11/26/2014 07:16 Wet 34.9F 42F 32F 95 0% 0.00 in 0% 6 mhos 0 Yes - - -
11/26/2014 07:12 Wet 35.1F 42F 32F 95 0% 0.00 in 0% 6 mhos 0 Yes - - -
11/26/2014 07:02 Wet 34.9F 42F 32F 95 0% 0.00 in 0% 6 mhos 0 Yes - - -
11/26/2014 06:52 Wet 34.9F 42F 32F 95 0% 0.00 in 0% 10 mhos 0 Yes - - -
11/26/2014 06:43 Wet 34.7F 42F 32F 95 0% 0.00 in 0% 10 mhos 0 Yes - - -
Date/Time
(MST)
Sf
Temp Chem Water Layer Surface Precipitation
Sf Sub Frz Factor Pct Depth IcePct Cond Salin Type Intens Accum Rate
11/26/2014 06:42 Wet 34.7F 42F 32F 95 0% 0.00 in 0% 10 mhos 0 Yes - - -
11/26/2014 06:32 Wet 34.7F 42F 32F 95 0% 0.00 in 0% 10 mhos 0 Yes - - -
11/26/2014 06:24 Wet 34.9F 42F 32F 95 0% 0.00 in 0% 3 mhos 0 Yes - - -
11/26/2014 06:22 Wet 34.9F 42F 32F 95 0% 0.00 in 0% 4 mhos 0 Yes - - -
11/26/2014 06:12 Wet 34.9F 42F 32F 95 0% 0.00 in 0% 1 mhos 0 Yes - - -
11/26/2014 06:11 Wet 34.9F 42F 32F 95 0% 0.00 in 0% 1 mhos 0 Yes - - -
11/26/2014 06:02 Wet 35.1F 42F 32F 95 0% 0.30 in 0% 6 mhos 0 Yes - - -
11/26/2014 05:52 Wet 34.9F 42F 32F 95 0% 0.10 in 0% 8 mhos 0 Yes - - -
11/26/2014 05:45 Wet 34.5F 42F 32F 95 0% 0.00 in 0% 14 mhos 0 Yes - - -
11/26/2014 05:42 Wet 34.2F 42F 32F 95 0% 0.00 in 0% 0 mhos 0 Yes - - -
11/26/2014 05:32 Wet 33.6F 42F 32F 95 0% 0.00 in 0% 0 mhos 0 Yes - - -
11/26/2014 05:27 Wet 33.6F 42F 32F 95 0% 0.50 in 0% 0 mhos 0 Yes - - -
11/26/2014 05:22 Wet 35.4F 42F 32F 95 0% 0.00 in 0% 0 mhos 0 Yes - - -
11/26/2014 05:12 Wet 36.0F 42F 32F 95 0% 0.00 in 0% 1 mhos 0 Yes - - -
11/26/2014 05:11 Wet 36.0F 42F 32F 95 0% 0.00 in 0% 1 mhos 0 Yes - - -
Date/Time
(MST)
Sf
Temp Chem Water Layer Surface Precipitation
Sf Sub Frz Factor Pct Depth IcePct Cond Salin Type Intens Accum Rate
11/26/2014 05:02 Wet 36.0F 42F 32F 95 0% 0.00 in 0% 1 mhos 0 Yes - - -
11/26/2014 04:58 Wet 36.0F 42F 32F 95 0% 0.10 in 0% 1 mhos 0 Yes - - -
11/26/2014 04:52 Wet 36.0F 42F 32F 95 0% 0.10 in 0% 1 mhos 0 Yes - - -
11/26/2014 04:41 Wet 36.0F 42F 32F 95 0% 0.00 in 0% 0 mhos 0 Yes - - -
11/26/2014 04:41 Wet 36.0F 42F 32F 95 0% 0.00 in 0% 0 mhos 0 Yes - - -
11/26/2014 04:31 Wet 36.1F 42F 32F 95 0% 0.00 in 0% 1 mhos 0 Yes - - -
11/26/2014 04:23 Wet 36.0F 42F 32F 80 0% 0.00 in 0% 0 mhos 0 Yes - - -
11/26/2014 04:21 Wet 36.1F 42F 32F 85 0% 0.00 in 0% 0 mhos 0 Yes - - -
11/26/2014 04:12 Wet 36.0F 42F 32F 70 0% 0.00 in 0% 0 mhos 0 Yes - - -
11/26/2014 04:11 Wet 36.1F 42F 32F 65 0% 0.00 in 0% 0 mhos 0 Yes - - -
11/26/2014 04:01 Wet 36.1F 42F 32F 30 0% 0.10 in 0% 0 mhos 0 Yes - - -
11/26/2014 03:56 Wet 36.0F 42F 32F 40 0% 0.10 in 0% 0 mhos 0 Yes - - -
11/26/2014 03:51 Wet 36.0F 42F 32F 30 0% 0.10 in 0% 0 mhos 0 Yes - - -
11/26/2014 03:42 Wet 36.0F 42F 32F 65 0% 0.20 in 0% 0 mhos 0 Yes - - -
11/26/2014 03:41 Wet 36.0F 42F 32F 65 0% 0.20 in 0% 0 mhos 0 Yes - - -
Date/Time
(MST)
Sf
Temp Chem Water Layer Surface Precipitation
Sf Sub Frz Factor Pct Depth IcePct Cond Salin Type Intens Accum Rate
11/26/2014 03:31 Wet 36.0F 42F 32F 55 0% 0.10 in 0% 0 mhos 0 Yes - - -
11/26/2014 03:30 Wet 36.0F 42F 32F 50 0% 0.10 in 0% 0 mhos 0 Yes - - -
11/26/2014 03:21 Wet 36.0F 42F 32F 50 0% 0.10 in 0% 0 mhos 0 Yes - - -
11/26/2014 03:14 Wet 36.0F 42F 32F 60 0% 0.10 in 0% 0 mhos 0 Yes - - -
11/26/2014 03:11 Wet 36.0F 42F 32F 85 0% 0.10 in 0% 0 mhos 0 Yes - - -
11/26/2014 03:01 Wet 36.0F 42F 32F 95 0% 0.10 in 0% 0 mhos 0 Yes - - -
11/26/2014 02:52 Wet 36.0F 42F 32F 95 0% 0.10 in 0% 0 mhos 0 Yes - - -
11/26/2014 02:51 Wet 36.0F 42F 32F 95 0% 0.10 in 0% 0 mhos 0 Yes - - -
11/26/2014 02:42 Wet 36.0F 42F 32F 90 0% 0.00 in 0% 1 mhos 0 Yes - - -
11/26/2014 02:41 Wet 36.0F 42F 32F 90 0% 0.00 in 0% 1 mhos 0 Yes - - -
11/26/2014 02:31 Wet 36.0F 42F 32F 95 0% 0.00 in 0% 1 mhos 0 Yes - - -
11/26/2014 02:20 Wet 36.0F 42F 32F 95 0% 0.00 in 0% 0 mhos 0 Yes - - -
11/26/2014 02:20 Wet 36.0F 42F 32F 95 0% 0.00 in 0% 0 mhos 0 Yes - - -
11/26/2014 02:10 Wet 36.0F 42F 32F 95 0% 0.00 in 0% 1 mhos 0 Yes - - -
11/26/2014 02:00 Wet 36.0F 42F 32F 95 0% 0.60 in 0% 0 mhos 0 Yes - - -
Date/Time
(MST)
Sf
Temp Chem Water Layer Surface Precipitation
Sf Sub Frz Factor Pct Depth IcePct Cond Salin Type Intens Accum Rate
11/26/2014 01:50 Wet 36.0F 42F 32F 95 0% 0.00 in 0% 1 mhos 0 Yes - - -
11/26/2014 01:43 Wet 36.0F 42F 32F 95 0% 0.00 in 0% 4 mhos 0 Yes - - -
11/26/2014 01:40 Wet 36.0F 42F 32F 95 0% 0.00 in 0% 5 mhos 0 Yes - - -
11/26/2014 01:30 Wet 36.0F 42F 32F 70 0% 0.00 in 0% 6 mhos 0 Yes - - -
11/26/2014 01:20 Wet 36.1F 42F 32F 95 0% 0.00 in 0% 6 mhos 0 Yes - - -
11/26/2014 01:15 Wet 36.3F 42F 32F 70 0% 0.00 in 0% 8 mhos 0 Yes - - -
11/26/2014 01:10 Wet 36.3F 42F 32F 75 0% 0.00 in 0% 7 mhos 0 Yes - - -
11/26/2014 01:00 Wet 36.5F 42F 32F 85 0% 0.00 in 0% 7 mhos 0 Yes - - -
11/26/2014 00:50 Wet 36.5F 42F 32F 95 0% 0.00 in 0% 5 mhos 0 Yes - - -
11/26/2014 00:49 Wet 36.5F 42F 32F 95 0% 0.00 in 0% 5 mhos 0 Yes - - -
11/26/2014 00:40 Wet 36.5F 42F 32F 95 0% 0.00 in 0% 7 mhos 0 Yes - - -
11/26/2014 00:30 Wet 37.0F 42F 32F 95 0% 0.00 in 0% 4 mhos 0 Yes - - -
11/26/2014 00:20 Wet 37.2F 42F 32F 95 0% 0.00 in 0% 1 mhos 0 Yes - - -
11/26/2014 00:10 Wet 37.4F 42F 32F 95 0% 0.00 in 0% 0 mhos 0 Yes - - -
11/26/2014 00:00 Wet 37.6F 42F 32F 95 0% 0.00 in 0% 0 mhos 0 Yes - - -
Date/Time
(MST)
Sf
Temp Chem Water Layer Surface Precipitation
Sf Sub Frz Factor Pct Depth IcePct Cond Salin Type Intens Accum Rate
11/25/2014 23:50 Wet 37.8F 42F 32F 85 0% 0.00 in 0% 0 mhos 0 Yes - - -
11/25/2014 23:40 Wet 37.9F 42F 32F 35 0% 0.20 in 0% 0 mhos 0 Yes - - -
11/25/2014 23:30 Wet 37.9F 42F 32F 20 0% 0.40 in 0% 0 mhos 0 None None - -
11/25/2014 23:20 Wet 38.1F 42F 32F 15 0% 0.30 in 0% 0 mhos 0 None None - -
11/25/2014 23:09 Wet 38.1F 42F 32F 10 0% 0.30 in 0% 0 mhos 0 None None - -
11/25/2014 22:59 Wet 38.1F 42F 32F 10 0% 0.30 in 0% 0 mhos 0 None None - -
11/25/2014 22:49 Wet 38.1F 42F 32F 10 0% 0.30 in 0% 0 mhos 0 None None - -
11/25/2014 22:49 Wet 38.1F 42F 32F 10 0% 0.30 in 0% 0 mhos 0 None None - -
11/25/2014 22:39 Wet 38.1F 42F 32F 10 0% 0.30 in 0% 0 mhos 0 None None - -
11/25/2014 22:29 Wet 38.3F 42F 32F 10 0% 0.30 in 0% 0 mhos 0 None None - -
11/25/2014 22:27 Wet 38.5F 42F 32F 10 0% 0.30 in 0% 0 mhos 0 None None - -
11/25/2014 22:19 Wet 38.3F 42F 32F 10 0% 0.40 in 0% 0 mhos 0 None None - -
11/25/2014 22:11 Wet 38.5F 42F 32F 10 0% 0.40 in 0% 0 mhos 0 None None - -
11/25/2014 22:09 Wet 38.5F 42F 32F 15 0% 0.40 in 0% 0 mhos 0 None None - -
11/25/2014 21:59 Wet 38.7F 42F 32F 5 0% 0.20 in 0% 0 mhos 0 None None - -
Date/Time
(MST)
Sf
Temp Chem Water Layer Surface Precipitation
Sf Sub Frz Factor Pct Depth IcePct Cond Salin Type Intens Accum Rate
11/25/2014 21:49 Wet 38.5F 42F 32F 5 0% 0.20 in 0% 0 mhos 0 None None - -
11/25/2014 21:46 Wet 38.5F 42F 32F 5 0% 0.20 in 0% 0 mhos 0 None None - -
11/25/2014 21:39 Wet 38.5F 42F 32F 5 0% 0.00 in 0% 0 mhos 0 None None - -
11/25/2014 21:29 Wet 38.7F 42F 32F 5 0% 0.00 in 0% 0 mhos 0 None None - -
11/25/2014 21:22 Wet 38.7F 42F 32F 5 0% 0.00 in 0% 0 mhos 0 None None - -
11/25/2014 21:19 Wet 38.7F 42F 32F 5 0% 0.00 in 0% 0 mhos 0 None None - -
11/25/2014 21:09 Wet 38.5F 42F 32F 5 0% 0.00 in 0% 0 mhos 0 None None - -
11/25/2014 20:59 Wet 38.5F 42F 32F 5 0% 0.00 in 0% 0 mhos 0 None None - -
11/25/2014 20:55 Wet 38.7F 42F 32F 5 0% 0.00 in 0% 0 mhos 0 None None - -
11/25/2014 20:49 Wet 38.5F 42F 32F 5 0% 0.00 in 0% 0 mhos 0 None None - -
11/25/2014 20:41 Wet 38.7F 42F 32F 5 0% 0.00 in 0% 0 mhos 0 None None - -
11/25/2014 20:38 Wet 38.7F 42F 32F 5 0% 0.00 in 0% 0 mhos 0 None None - -
11/25/2014 20:28 Wet 38.7F 42F 32F 5 0% 0.00 in 0% 0 mhos 0 None None - -
11/25/2014 20:18 Wet 39.0F 42F 32F 5 0% 0.00 in 0% 0 mhos 0 None None - -
11/25/2014 20:17 Wet 38.8F 42F 32F 5 0% 0.00 in 0% 0 mhos 0 None None - -
Date/Time
(MST)
Sf
Temp Chem Water Layer Surface Precipitation
Sf Sub Frz Factor Pct Depth IcePct Cond Salin Type Intens Accum Rate
11/25/2014 20:08 Wet 38.8F 42F 32F 5 0% 0.00 in 0% 0 mhos 0 None None - -
11/25/2014 19:58 Wet 38.8F 42F 32F 5 0% 0.00 in 0% 0 mhos 0 None None - -
11/25/2014 19:53 Wet 39.0F 42F 32F 5 0% 0.00 in 0% 0 mhos 0 None None - -
11/25/2014 19:48 Wet 39.2F 42F 32F 5 0% 0.00 in 0% 0 mhos 0 None None - -
11/25/2014 19:41 Wet 39.2F 42F 32F 5 0% 0.00 in 0% 0 mhos 0 None None - -
11/25/2014 19:38 Wet 39.2F 42F 32F 5 0% 0.00 in 0% 0 mhos 0 None None - -
11/25/2014 19:28 Wet 39.4F 42F 32F 5 0% 0.00 in 0% 0 mhos 0 None None - -
11/25/2014 19:26 Wet 39.6F 42F 32F 5 0% 0.00 in 0% 0 mhos 0 None None - -
11/25/2014 19:18 Wet 39.4F 42F 32F 5 0% 0.00 in 0% 0 mhos 0 None None - -
11/25/2014 19:12 Wet 39.4F 42F 32F 5 0% 0.00 in 0% 0 mhos 0 None None - -
11/25/2014 19:08 Wet 39.4F 42F 32F 5 0% 0.00 in 0% 0 mhos 0 None None - -
11/25/2014 18:58 Dry 39.7F 42F - - - - - 0 mhos 0 None None - -
11/25/2014 18:53 Wet 39.6F 42F 32F 5 0% 0.00 in 0% 0 mhos 0 None None - -
11/25/2014 18:48 Dry 39.7F 42F - - - - - 0 mhos 0 None None - -
11/25/2014 18:41 Wet 39.7F 42F 32F 5 0% 0.00 in 0% 0 mhos 0 None None - -
Date/Time
(MST)
Sf
Temp Chem Water Layer Surface Precipitation
Sf Sub Frz Factor Pct Depth IcePct Cond Salin Type Intens Accum Rate
11/25/2014 18:38 Wet 39.9F 42F 32F 5 0% 0.00 in 0% 0 mhos 0 None None - -
11/25/2014 18:28 Wet 39.9F 42F 32F 5 0% 0.00 in 0% 0 mhos 0 None None - -
11/25/2014 18:18 Dry 40.3F 42F - - - - - 0 mhos 0 None None - -
11/25/2014 18:14 Dry 40.1F 42F - - - - - 0 mhos 0 None None - -
11/25/2014 18:08 Trace Moisture 40.3F 42F - 5 - - - 0 mhos 0 None None - -
11/25/2014 17:58 Dry 40.3F 42F - - - - - 0 mhos 0 None None - -
11/25/2014 17:48 Dry 40.1F 42F - - - - - 0 mhos 0 None None - -
11/25/2014 17:44 Dry 40.3F 42F - - - - - 0 mhos 0 None None - -
11/25/2014 17:38 Dry 40.3F 42F - - - - - 0 mhos 0 None None - -
11/25/2014 17:29 Wet 40.6F 42F 32F 5 0% 0.00 in 0% 0 mhos 0 None None - -
11/25/2014 17:27 Wet 40.6F 42F 32F 5 0% 0.00 in 0% 0 mhos 0 Yes - - -
11/25/2014 17:17 Wet 40.6F 42F 32F 5 0% 0.00 in 0% 0 mhos 0 None None - -
11/25/2014 17:11 Wet 40.6F 41F 32F 5 0% 0.00 in 0% 0 mhos 0 None None - -
11/25/2014 17:07 Trace Moisture 40.6F 42F - 5 - - - 0 mhos 0 None None - -
11/25/2014 16:57 Dry 41.0F 42F - - - - - 0 mhos 0 None None - -
Date/Time
(MST)
Sf
Temp Chem Water Layer Surface Precipitation
Sf Sub Frz Factor Pct Depth IcePct Cond Salin Type Intens Accum Rate
11/25/2014 16:51 Wet 41.2F 42F 32F 5 0% 0.00 in 0% 0 mhos 0 None None - -
11/25/2014 16:47 Wet 41.0F 42F 32F 5 0% 0.00 in 0% 0 mhos 0 None None - -
11/25/2014 16:41 Wet 41.4F 42F 32F 5 0% 0.00 in 0% 0 mhos 0 None None - -
11/25/2014 16:37 Wet 41.4F 42F 32F 5 0% 0.00 in 0% 0 mhos 0 None None - -
11/25/2014 16:27 Wet 41.5F 42F 32F 5 0% 0.00 in 0% 0 mhos 0 None None - -
11/25/2014 16:21 Wet 41.5F 42F 32F 5 0% 0.00 in 0% 0 mhos 0 None None - -
11/25/2014 16:17 Wet 41.4F 42F 32F 5 0% 0.00 in 0% 0 mhos 0 None None - -
11/25/2014 16:11 Wet 41.5F 42F 32F 5 0% 0.00 in 0% 0 mhos 0 None None - -
11/25/2014 16:07 Wet 41.7F 42F 32F 5 0% 0.00 in 0% 0 mhos 0 None None - -
11/25/2014 15:57 Wet 41.7F 41F 32F 5 0% 0.00 in 0% 0 mhos 0 None None - -
11/25/2014 15:51 Wet 41.9F 42F 32F 5 0% 0.00 in 0% 0 mhos 0 None None - -
11/25/2014 15:47 Wet 42.1F 42F 32F 5 0% 0.00 in 0% 0 mhos 0 None None - -
11/25/2014 15:41 Wet 41.9F 41F 32F 5 0% 0.00 in 0% 0 mhos 0 None None - -
11/25/2014 15:37 Wet 42.1F 41F 32F 5 0% 0.00 in 0% 0 mhos 0 None None - -
11/25/2014 15:27 Wet 42.4F 42F 32F 5 0% 0.10 in 0% 0 mhos 0 None None - -
Date/Time
(MST)
Sf
Temp Chem Water Layer Surface Precipitation
Sf Sub Frz Factor Pct Depth IcePct Cond Salin Type Intens Accum Rate
11/25/2014 15:21 Wet 42.4F 41F 32F 5 0% 0.10 in 0% 0 mhos 0 None None - -
11/25/2014 15:17 Wet 42.6F 41F 32F 5 0% 0.00 in 0% 0 mhos 0 None None - -
11/25/2014 15:11 Wet 42.6F 41F 32F 5 0% 0.00 in 0% 0 mhos 0 None None - -
11/25/2014 15:07 Wet 42.6F 41F 32F 5 0% 0.00 in 0% 0 mhos 0 None None - -
11/25/2014 14:57 Wet 42.8F 41F 32F 5 0% 0.00 in 0% 0 mhos 0 None None - -
11/25/2014 14:52 Wet 43.0F 41F 32F 5 0% 0.00 in 0% 0 mhos 0 None None - -
11/25/2014 14:47 Wet 43.0F 41F 32F 5 0% 0.00 in 0% 0 mhos 0 None None - -
11/25/2014 14:41 Wet 43.0F 41F 32F 5 0% 0.00 in 0% 0 mhos 0 None None - -
11/25/2014 14:37 Wet 43.2F 41F 32F 5 0% 0.00 in 0% 0 mhos 0 None None - -
11/25/2014 14:26 Wet 43.2F 41F 32F 5 0% 0.00 in 0% 0 mhos 0 None None - -
11/25/2014 14:25 Wet 43.3F 41F 32F 5 0% 0.00 in 0% 0 mhos 0 None None - -
11/25/2014 14:16 Wet 43.3F 41F 32F 25 0% 0.00 in 0% 0 mhos 0 None None - -
11/25/2014 14:11 Wet 43.2F 41F 32F 50 0% 0.00 in 0% 0 mhos 0 Yes - - -
11/25/2014 14:06 Wet 43.0F 41F 32F 75 0% 0.00 in 0% 0 mhos 0 None None - -
11/25/2014 13:56 Wet 43.2F 41F 32F 95 0% 0.00 in 0% 0 mhos 0 None None - -
Date/Time
(MST)
Sf
Temp Chem Water Layer Surface Precipitation
Sf Sub Frz Factor Pct Depth IcePct Cond Salin Type Intens Accum Rate
11/25/2014 13:51 Wet 43.3F 41F 32F 95 0% 0.00 in 0% 1 mhos 0 Yes - - -
11/25/2014 13:46 Wet 43.3F 41F 32F 95 0% 0.00 in 0% 1 mhos 0 Yes - - -
11/25/2014 13:41 Wet 43.3F 41F 32F 95 0% 0.00 in 0% 1 mhos 0 None None - -
11/25/2014 13:36 Wet 43.7F 41F 32F 95 0% 0.00 in 0% 1 mhos 0 Yes - - -
11/25/2014 13:26 Wet 44.1F 41F 32F 65 0% 0.00 in 0% 1 mhos 0 None None - -
11/25/2014 13:22 Wet 44.2F 41F 32F 55 0% 0.00 in 0% 1 mhos 0 Yes - - -
11/25/2014 13:16 Wet 44.2F 41F 32F 5 0% 0.00 in 0% 0 mhos 0 Yes - - -
11/25/2014 13:06 Wet 44.6F 41F 32F 5 0% 0.00 in 0% 0 mhos 0 None None - -
11/25/2014 12:56 Wet 44.4F 41F 32F 5 0% 0.00 in 0% 0 mhos 0 None None - -
11/25/2014 12:51 Wet 44.6F 41F 32F 5 0% 0.00 in 0% 0 mhos 0 None None - -
11/25/2014 12:46 Wet 44.8F 41F 32F 5 0% 0.00 in 0% 0 mhos 0 None None - -
11/25/2014 12:41 Wet 44.8F 41F 32F 5 0% 0.00 in 0% 0 mhos 0 None None - -
11/25/2014 12:36 Wet 44.8F 41F 32F 5 0% 0.00 in 0% 0 mhos 0 None None - -
11/25/2014 12:26 Wet 44.8F 41F 32F 20 0% 0.00 in 0% 0 mhos 0 None None - -
11/25/2014 12:23 Wet 44.6F 41F 32F 40 0% 0.00 in 0% 0 mhos 0 None None - -
Date/Time
(MST)
Sf
Temp Chem Water Layer Surface Precipitation
Sf Sub Frz Factor Pct Depth IcePct Cond Salin Type Intens Accum Rate
11/25/2014 12:16 Wet 44.1F 41F 32F 65 0% 0.00 in 0% 0 mhos 0 None None - -
11/25/2014 12:11 Wet 43.9F 41F 32F 95 0% 0.00 in 0% 1 mhos 0 None None - -
11/25/2014 12:06 Wet 43.5F 41F 32F 95 0% 0.00 in 0% 1 mhos 0 None None - -
11/25/2014 11:56 Wet 43.7F 41F 32F 95 0% 0.00 in 0% 1 mhos 0 None None - -
11/25/2014 11:52 Wet 44.4F 41F 32F 95 0% 0.00 in 0% 1 mhos 0 None None - -
11/25/2014 11:46 Wet 44.8F 41F 32F 95 0% 0.00 in 0% 1 mhos 0 None None - -
11/25/2014 11:41 Wet 44.8F 41F 32F 95 0% 0.00 in 0% 2 mhos 0 None None - -
11/25/2014 11:36 Wet 44.6F 41F 32F 95 0% 0.00 in 0% 3 mhos 0 None None - -
Change End Date:
Copyright © 1998-2005 Surface Systems, Inc.
All Rights Reserved
Send comments about the data to:
SCAN Web ® is a registered trademark of Surface Systems, Inc.
SCAN Web Version 5.6